www.pogodaiklimat.ru

Погода и климат >> Архив погоды >> Монголия >> Мурэн


ПОГОДА в Мурэне

  • Прогноз погоды в Мурэне
  • Монитор погоды в Мурэне

АРХИВ ПОГОДЫ в Мурэне

Время (UTC), дата Ветер
(напр.,м/с)
 
Видим.   Явления Облачность Т
(С)
Тd
(С)
f
(%)
Тe
(С)
Тes
(С)
Комфортность P
(гПа)
Po
(гПа)
Тmin
(С)
Tmax
(С)
R
(мм)
R24
(мм)
S
(см)
18 13.09 штиль 0 н/о 3/0
[Ac lent]
+4.6 -3.9 54 +4 +4 1018.9 869.7
21 13.09 СВ 1 н/о 5/0
[Ac lent]
+3.6 -2.6 64 +3 +3 1018.8 869.1
00 14.09 В 1 50 км 3/0
[Cc]
+2.2 -3.3 67 +1 +1 1019.6 869.1 +0.4
03 14.09 З 5 50 км 3/3 1000 м
[Cu hum]
+11.2 -2.9 37 +9 +12 1014.2 868.8
06 14.09 СЗ 7
{13}
50 км 9/9 1000 м
[Cb calv]
+12.8 -3.9 31 +11 +11 1012.4 868.1
09 14.09 З 8
{14}
50 км в посл. час ливневой дождь 8/4 1000 м
[Cb calv Ci sp]
+12.2 -5.3 29 +10 +10 1013.2 868.5
12 14.09 З 5
{13}
50 км {ливн. осадки} 3/3 1000 м
[Cb calv]
+8.6 -1.5 49 +6 +6 1017.8 870.7 +13.7 0.0
15 14.09 СЗ 4 н/о ясно +6.3 -4.5 46 +3 +3 1021.9 873.1
18 14.09 штиль 0 н/о ясно +4.1 -3.0 60 +4 +4 1024.2 874.0
21 14.09 В 2 н/о 4/0
[Ci]
+0.9 -3.6 72 -2 -2 1025.6 873.5
00 15.09 В 1 50 км 8/0
[Ac lent Cs]
+0.5 -3.4 75 -1 -1 1026.7 874.2 -1.0
03 15.09 З 2 50 км 4/3 1000 м
[Cu med, cong Ci]
+10.0 -0.8 47 +9 +13 1020.6 873.8
06 15.09 З 6
{12}
50 км 8/6 1000 м
[Cb calv Ci ing]
+14.2 -3.1 30 +13 +14 1015.7 871.6
09 15.09 З 4 50 км 8/4 1000 м
[Cb calv Ac lent]
+15.4 -2.1 30 +15 +15 1013.9 870.6
12 15.09 СЗ 2 50 км 6/4 1000 м
[Cu med, cong Ac cuf]
+12.2 -2.8 35 +12 +12 1015.2 870.2 +16.5
15 15.09 ЮЗ 2 н/о 9/0
[Ac As]
+9.7 -0.8 48 +9 +9 1018.9 872.2
18 15.09 В 1 н/о 3/0
[Ac lent]
+4.5 -1.7 64 +4 +4 1021.9 872.2
21 15.09 ЮВ 1 н/о ясно +1.6 -2.5 74 0 0 1024.1 872.6
00 16.09 СВ 1 50 км 3/0
[Ac lent Ci fib]
+2.6 -1.6 74 +1 +2 1024.4 873.4 +0.6
03 16.09 З 5 50 км 8/4 1000 м
[Cu med, cong Cs]
+13.1 -0.2 40 +11 +13 1018.3 873.3
06 16.09 З 6
{12}
50 км 9/5 1000 м
[Cb calv Cc]
+14.1 -0.7 36 +12 +14 1017.0 872.6
09 16.09 СЗ 7
{14}
50 км 8/3 1000 м
[Cb calv Ac lent Cc]
+16.1 -1.5 30 +15 +15 1015.1 872.0
12 16.09 СЗ 4
{12}
50 км ясно +13.0 -1.3 37 +12 +12 1018.9 873.8 +17.3
15 16.09 З 5 н/о ясно +10.3 -0.5 47 +8 +8 1023.6 876.5
18 16.09 В 2 н/о ясно +4.3 -1.3 67 +2 +2 1028.8 878.0
21 16.09 В 2 н/о ясно +2.8 -1.4 74 -0 -0 1030.9 879.0
00 17.09 штиль 0 50 км ясно +1.3 -2.1 78 0 +1 1033.3 880.3 +1.0
03 17.09 Ю 1 50 км ясно +10.3 +0.6 51 +10 +18 1028.3 880.5
06 17.09 ЮЗ 1 50 км ясно +16.8 +0.4 33 +18 +29 1022.4 878.5
09 17.09 С 2 50 км 8/0
[Cc]
+18.9 -1.5 25 +19 +22 1018.4 876.1
12 17.09 В 2 50 км 9/0
[Ac lent Cs]
+14.9 -2.1 31 +15 +15 1020.3 875.9 +19.7
15 17.09 В 2 н/о 6/0
[Cs]
+10.9 -2.8 38 +10 +10 1023.5 876.7
18 17.09 штиль 0 н/о 3/0
[Ac lent Ci]
+6.1 -2.3 55 +6 +6 1026.2 876.7
21 17.09 штиль 0 н/о 9/0
[Ac As]
+6.7 -0.7 59 +6 +6 1025.3 876.2
00 18.09 СВ 1 50 км 9/4 1000 м
[Sc Ac trans Cs]
+7.7 -0.5 56 +7 +7 1025.7 877.0 +5.3
03 18.09 штиль 0 50 км 9/0
[Ac lent Cs]
+13.3 -0.4 39 +13 +20 1022.7 877.1
06 18.09 З 5 50 км 9/3 1000 м
[Cu med, cong Cc]
+20.0 -1.2 24 +20 +23 1016.9 875.2
09 18.09 З 6 50 км 3/3 1000 м
[Cb calv]
+21.2 -2.0 21 +21 +21 комфорт 1014.9 874.0
12 18.09 С 4 50 км 3/3 1000 м
[Sc]
+17.4 -3.9 23 +17 +17 1017.9 874.9 +21.3
15 18.09 штиль 0 н/о 1/0
[Ac lent]
+9.9 -2.1 43 +10 +10 1023.9 876.6
18 18.09 В 2 н/о 3/0
[Ac trans]
+7.4 -1.8 52 +6 +6 1026.2 877.3
21 18.09 В 2 н/о 5/0
[Cs]
+5.4 -2.0 59 +3 +3 1027.9 877.8
00 19.09 В 1 50 км 3/0
[Ac cast]
+4.6 -1.2 66 +4 +4 1029.4 878.6 +3.5
03 19.09 З 1 50 км 3/1 1000 м
[Cu hum Ac lent]
+13.1 +1.1 44 +14 +19 1024.7 878.7
06 19.09 З 6 50 км 5/3 1000 м
[Cu med, cong Ac lent Cc]
+18.7 +1.2 31 +18 +20 1019.4 876.8
09 19.09 З 5 50 км 6/4 1000 м
[Cb calv Ac cast]
+19.3 +0.8 29 +19 +20 1018.1 875.9
12 19.09 СВ 2 50 км 8/6 1000 м
[Cb calv Ac cuf]
+16.7 +2.3 38 +17 +17 1020.5 876.8 +20.6
15 19.09 ЮВ 1 н/о 8/0
[Ac und]
+9.9 +1.0 54 +10 +10 1026.0 878.4
18 19.09 штиль 0 н/о 1/0
[Ac lent]
+7.2 +0.6 63 +7 +7 1027.8 878.6
21 19.09 СВ 1 н/о ясно +4.3 +0.1 74 +3 +3 1029.5 878.6
00 20.09 штиль 0 50 км 3/0
[Ci fib]
+3.8 -0.2 75 +3 +3 1030.8 879.4 +2.7
03 20.09 Ю 1 50 км 6/0
[Cs]
+11.7 +2.2 52 +12 +18 1025.8 879.1
06 20.09 ЮЗ 1 50 км 6/0
[Cc]
+19.1 +1.2 30 +20 +29 1018.9 876.6
09 20.09 З 2 50 км 9/0
[Ac lent Cc]
+21.3 +0.5 25 +21 +23 комфорт 1015.6 874.6
12 20.09 В 2 50 км 4/0
[Ac cast Ci]
+16.2 +2.2 39 +16 +16 1018.0 874.5 +22.0
15 20.09 штиль 0 н/о ясно +10.6 -0.8 45 +10 +10 1022.3 875.5

 

Местоположение метеостанции Мурэн (Монголия): широта 49.63 долгота 100.16 высота над уровнем моря 1283 м.

В архиве по умолчанию представлена погода в Мурэне за последнюю неделю. Архивные данные за месяц целиком и за предыдущие месяцы, начиная с января 2011 года, Вы можете получить, выбрав интересующий диапазон дат из раскрывающегося списка и нажав кнопку "Ввод!".


*Определитесь, кто Вы:
робот инопланетянин человек

Внимание! Время в таблицах - всемирное. Для получения местного времени необходимо прибавить поправку, которая равна 8 ч.

Смотрите также архив погоды в соседних городах и на ближайших метеорологических станциях:

Погода в Хатгале (Монголия) (89 км)
Погода ву Тариалане (Монголия) (133 км)
Погода в Эрдэнэмандале (Монголия) (151 км)
Погода в Рэнчинлхумбэ (Монголия) (169 км)
Погода в Тосонцэнгэле (Монголия) (174 км)
Погода в Тариате (Монголия) (178 км)
Погода в Хутаге (Монголия) (186 км)
Погода в Кунгур-Туке (Алтай, Россия) (217 км)
Погода в Санаге (Бурятия, Россия) (218 км)
Погода в Монды (Бурятия, Россия) (234 км)

Пояснения к столбцам:

Ветер - указаны скорость ветра в м/с - средняя за 10 мин, порывы в срок и между сроками (в фигурных скобках) и направление, откуда дует ветер: С - северный, СВ - северо-восточный, В - восточный, ЮВ - юго-восточный, Ю - южный, ЮЗ - юго-западный, З - западный, СЗ - северо-западный.
Видимость - горизонтальная дальность видимости в метрах или километрах. При видимости от 1 до 10 км при отсутствии осадков обычно наблюдается дымка, при ухудшении видимости до 1 км и менее - туман. В сухую погоду видимость может ухудшаться дымом, пылью или мглою.
Явления - указаны атмосферные явления, наблюдавшиеся в срок или в последний час перед сроком; фигурными скобками обозначены явления, наблюдавшиеся между сроками (за 1-3 часа до срока); квадратными скобками обозначены град или гололедные отложения с указанием их диаметра в мм.
Облачность - указаны через наклонную черту общая и нижняя облачность в баллах и высота нижней границы облаков в метрах; квадратными скобками обозначены формы облаков: Ci - перистые, Cs - перисто-слоистые, Cc - перисто-кучевые, Ac - высококучевые, As - высокослоистые, Sc - слоисто-кучевые, Ns - слоисто-дождевые, Cu - кучевые, Cb - кучево-дождевые. Подробнее классификацию облаков см. в Атласе облаков (PDF).
T - Температура воздуха - температура, измеренная на высоте 2 м над землей.
Td - Температура точки росы - температура, при понижении до которой содержащийся в воздухе водяной пар достигнет насыщения.
f - Относительная влажность воздуха - влажноcть воздуха, измеренная на высоте 2 м над землей.
Te - Эффективная температура - температура, которую ощущает одетый по сезону человек в тени. Характеристика душности погоды. При расчете учитывается влияние влажности воздуха и скорости ветра на теплоощущения человека.
Tes - Эффективная температура на солнце - температура, которую ощущает человек, с поправкой на солнечный нагрев. Характеристика знойности погоды. Зависит от высоты солнца над горизонтом, облачности и скорости ветра. Ночью, в пасмурную погоду, а также при ветре 12 м/с и более поправка равна нулю.
P - Атмосферное давление - приведенное к уровню моря атмосферное давление.
Po - Атмосферное давление - измеренное на уровне метеостанции атмосферное давление.
Tmin - Минимальная температура - минимум температуры воздуха на высоте 2 м над землей.
Tmax - Максимальная температура - максимум температуры воздуха на высоте 2 м над землей.
R - Количество осадков - Количество выпавших осадков за период времени, мм. При наведении курсора мыши на число - период времени, за который выпало указанное количество осадков.
R24 - Количество осадков - Количество выпавших осадков за 24 часа, мм.
S - Снежный покров - Высота снежного покрова, см. При наведении курсора мыши на число - состояние снежного покрова и степень покрытия местности в баллах.